| time (UTC) | temp F | wind direction | speed MPH | gust MPH | rain 1hr in | rain 24hr in | rain mn in | humidity % | barometer mb |
| 20260505101535 | 64 | 194 | 4.0 | 13.0 | 0.00 | 0.00 | 0.00 | 38 | 1022.1 |
| 20260505100038 | 64 | 148 | 4.0 | 15.0 | 0.00 | 0.00 | 0.00 | 40 | 1022.0 |
| 20260505094528 | 65 | 200 | 3.0 | 16.0 | 0.00 | 0.00 | 0.00 | 42 | 1021.7 |
| 20260505093031 | 66 | 147 | 6.0 | 15.0 | 0.00 | 0.00 | 0.00 | 41 | 1021.2 |
| 20260505091536 | 67 | 134 | 7.0 | 17.0 | 0.00 | 0.00 | 0.00 | 39 | 1021.2 |
| 20260505090032 | 68 | 186 | 7.0 | 17.0 | 0.00 | 0.00 | 0.00 | 40 | 1020.9 |
| 20260505084528 | 69 | 208 | 6.0 | 15.0 | 0.00 | 0.00 | 0.00 | 38 | 1020.7 |
| 20260505083046 | 70 | 209 | 8.0 | 18.0 | 0.00 | 0.00 | 0.00 | 36 | 1020.6 |
| 20260505081532 | 71 | 125 | 5.0 | 18.0 | 0.00 | 0.00 | 0.00 | 34 | 1020.4 |
| 20260505080044 | 73 | 251 | 7.0 | 14.0 | 0.00 | 0.00 | 0.00 | 33 | 1020.3 |
| 20260505074529 | 73 | 137 | 4.0 | 14.0 | 0.00 | 0.00 | 0.00 | 24 | 1020.3 |
| 20260505073038 | 73 | 149 | 5.0 | 14.0 | 0.00 | 0.00 | 0.00 | 21 | 1020.1 |
| 20260505071538 | 73 | 169 | 7.0 | 13.0 | 0.00 | 0.00 | 0.00 | 21 | 1019.9 |
| 20260505070030 | 74 | 130 | 7.0 | 13.0 | 0.00 | 0.00 | 0.00 | 20 | 1019.8 |
| 20260505064531 | 74 | 130 | 4.0 | 13.0 | 0.00 | 0.00 | 0.00 | 20 | 1019.7 |
| 20260505063042 | 74 | 63 | 3.0 | 9.0 | 0.00 | 0.00 | 0.00 | 21 | 1019.5 |
| 20260505061534 | 74 | 125 | 3.0 | 9.0 | 0.00 | 0.00 | 0.00 | 22 | 1019.6 |
| 20260505060029 | 73 | 136 | 4.0 | 10.0 | 0.00 | 0.00 | 0.00 | 23 | 1019.6 |
| 20260505054541 | 72 | 61 | 4.0 | 10.0 | 0.00 | 0.00 | 0.00 | 23 | 1019.6 |
| 20260505053028 | 73 | 138 | 4.0 | 8.0 | 0.00 | 0.00 | 0.00 | 22 | 1019.8 |
| 20260505051538 | 72 | 100 | 5.0 | 8.0 | 0.00 | 0.00 | 0.00 | 23 | 1019.7 |
| 20260505041545 | 70 | 316 | 4.0 | 10.0 | 0.00 | 0.00 | 0.00 | 21 | 1020.3 |
| 20260505040030 | 70 | 34 | 7.0 | 13.0 | 0.00 | 0.00 | 0.00 | 22 | 1020.3 |
| 20260505034533 | 70 | 20 | 4.0 | 12.0 | 0.00 | 0.00 | 0.00 | 21 | 1020.3 |
| 20260505033028 | 70 | 36 | 4.0 | 14.0 | 0.00 | 0.00 | 0.00 | 25 | 1020.3 |
| 20260505031534 | 69 | 34 | 7.0 | 13.0 | 0.00 | 0.00 | 0.00 | 24 | 1020.3 |
| 20260505030038 | 69 | 23 | 8.0 | 17.0 | 0.00 | 0.00 | 0.00 | 24 | 1020.5 |
| 20260505024531 | 69 | 34 | 6.0 | 13.0 | 0.00 | 0.00 | 0.00 | 24 | 1020.5 |
| 20260505023031 | 68 | 20 | 8.0 | 17.0 | 0.00 | 0.00 | 0.00 | 24 | 1020.6 |
| 20260505021530 | 68 | 328 | 8.0 | 13.0 | 0.00 | 0.00 | 0.00 | 23 | 1020.7 |
| 20260505020038 | 68 | 283 | 7.0 | 14.0 | 0.00 | 0.00 | 0.00 | 24 | 1020.6 |
| 20260505014528 | 67 | 17 | 8.0 | 15.0 | 0.00 | 0.00 | 0.00 | 25 | 1020.8 |
| 20260505013032 | 66 | 329 | 8.0 | 17.0 | 0.00 | 0.00 | 0.00 | 27 | 1020.8 |
| 20260505011534 | 65 | 313 | 9.0 | 16.0 | 0.00 | 0.00 | 0.00 | 29 | 1020.7 |
| 20260505010044 | 65 | 9 | 9.0 | 16.0 | 0.00 | 0.00 | 0.00 | 26 | 1020.7 |
| 20260505004528 | 64 | 335 | 10.0 | 20.0 | 0.00 | 0.00 | 0.00 | 28 | 1020.7 |
| 20260505003030 | 64 | 328 | 9.0 | 17.0 | 0.00 | 0.00 | 0.00 | 30 | 1020.6 |
| 20260505001535 | 64 | 287 | 7.0 | 16.0 | 0.00 | 0.00 | 0.00 | 29 | 1020.3 |
| 20260505000039 | 63 | 249 | 6.0 | 11.0 | 0.00 | 0.00 | 0.00 | 32 | 1020.5 |
| 20260504234533 | 62 | 285 | 7.0 | 15.0 | 0.00 | 0.00 | 0.00 | 34 | 1020.4 |
| 20260504233031 | 61 | 243 | 10.0 | 18.0 | 0.00 | 0.00 | 0.00 | 34 | 1020.6 |
| 20260504231532 | 61 | 324 | 9.0 | 14.0 | 0.00 | 0.00 | 0.00 | 35 | 1020.5 |
| 20260504230030 | 60 | 319 | 9.0 | 16.0 | 0.00 | 0.00 | 0.00 | 37 | 1020.4 |
| 20260504224535 | 59 | 276 | 10.0 | 17.0 | 0.00 | 0.00 | 0.00 | 37 | 1019.9 |
| 20260504223032 | 59 | 308 | 9.0 | 16.0 | 0.00 | 0.00 | 0.00 | 41 | 1020.1 |
| 20260504221530 | 58 | 288 | 8.0 | 14.0 | 0.00 | 0.00 | 0.00 | 41 | 1020.1 |
| 20260504220030 | 58 | 300 | 9.0 | 17.0 | 0.00 | 0.00 | 0.00 | 43 | 1019.7 |
| 20260504214539 | 57 | 297 | 7.0 | 15.0 | 0.00 | 0.00 | 0.00 | 43 | 1019.6 |
| 20260504213030 | 57 | 283 | 9.0 | 17.0 | 0.00 | 0.00 | 0.00 | 43 | 1019.3 |
| 20260504211530 | 56 | 262 | 7.0 | 16.0 | 0.00 | 0.00 | 0.00 | 44 | 1018.8 |
| 20260504210030 | 56 | 283 | 6.0 | 12.0 | 0.00 | 0.00 | 0.00 | 46 | 1018.8 |
| 20260504204530 | 55 | 259 | 4.0 | 8.0 | 0.00 | 0.10 | 0.00 | 48 | 1018.6 |
| 20260504203030 | 54 | 274 | 4.0 | 12.0 | 0.00 | 0.10 | 0.00 | 49 | 1018.2 |
| 20260504201529 | 54 | 290 | 6.0 | 13.0 | 0.00 | 0.10 | 0.00 | 49 | 1017.9 |
| 20260504200035 | 54 | 326 | 7.0 | 15.0 | 0.00 | 0.10 | 0.00 | 50 | 1017.6 |
| 20260504194531 | 54 | 330 | 7.0 | 13.0 | 0.00 | 0.22 | 0.00 | 51 | 1017.4 |
| 20260504193030 | 54 | 291 | 8.0 | 13.0 | 0.00 | 0.22 | 0.00 | 51 | 1017.1 |
| 20260504191533 | 53 | 326 | 6.0 | 13.0 | 0.00 | 0.22 | 0.00 | 52 | 1016.9 |
| 20260504190032 | 53 | 313 | 4.0 | 13.0 | 0.00 | 0.22 | 0.00 | 53 | 1016.7 |
| 20260504184536 | 53 | 281 | 5.0 | 15.0 | 0.00 | 0.22 | 0.00 | 53 | 1016.4 |
| 20260504183036 | 53 | 13 | 7.0 | 19.0 | 0.00 | 0.22 | 0.00 | 53 | 1016.0 |
| 20260504181532 | 53 | 340 | 12.0 | 24.0 | 0.00 | 0.22 | 0.00 | 54 | 1015.4 |
| 20260504180030 | 54 | 309 | 12.0 | 32.0 | 0.00 | 0.22 | 0.00 | 53 | 1014.9 |
| 20260504174532 | 54 | 309 | 8.0 | 27.0 | 0.00 | 0.22 | 0.00 | 53 | 1014.2 |
| 20260504173029 | 54 | 337 | 10.0 | 25.0 | 0.00 | 0.22 | 0.00 | 52 | 1014.0 |
| 20260504171530 | 54 | 336 | 10.0 | 23.0 | 0.00 | 0.22 | 0.00 | 51 | 1013.7 |